TimeEST,TemperatureF,Dew PointF,Humidity,Sea Level PressureIn,VisibilityMPH,Wind Direction,Wind SpeedMPH,Gust SpeedMPH,PrecipitationIn,Events,Conditions,WindDirDegrees,DateUTC
12:53 AM,19.0,9.0,65,30.36,10.0,South,3.5,-,N/A,,Scattered Clouds,170,2013-02-02 05:53:00
1:53 AM,19.9,10.0,65,30.34,10.0,South,3.5,-,N/A,,Overcast,170,2013-02-02 06:53:00
2:53 AM,21.0,10.9,65,30.33,10.0,South,4.6,-,N/A,,Overcast,180,2013-02-02 07:53:00
3:53 AM,21.9,12.9,68,30.31,10.0,South,4.6,-,N/A,,Overcast,180,2013-02-02 08:53:00
4:50 AM,21.2,15.8,80,30.26,2.0,South,6.9,-,0.00,Snow,Light Snow,180,2013-02-02 09:50:00
4:53 AM,21.9,16.0,78,30.29,2.0,South,5.8,-,0.00,Snow,Light Snow,180,2013-02-02 09:53:00
5:27 AM,21.2,17.6,86,30.26,1.8,South,5.8,-,0.01,Snow,Light Snow,180,2013-02-02 10:27:00
5:35 AM,21.2,17.6,86,30.26,2.0,South,5.8,-,0.01,Snow,Light Snow,180,2013-02-02 10:35:00
5:48 AM,21.2,17.6,86,30.25,1.8,South,5.8,-,0.01,Snow,Light Snow,190,2013-02-02 10:48:00
5:53 AM,21.9,18.0,85,30.28,1.5,South,4.6,-,0.01,Snow,Light Snow,190,2013-02-02 10:53:00
6:25 AM,21.2,19.4,93,30.24,2.0,South,3.5,-,0.00,Snow,Light Snow,180,2013-02-02 11:25:00
6:33 AM,21.2,19.4,93,30.24,1.2,South,4.6,-,0.01,Snow,Light Snow,170,2013-02-02 11:33:00
6:53 AM,21.2,19.4,93,30.24,1.2,South,3.5,-,N/A,Snow,Light Snow,180,2013-02-02 11:53:00
7:14 AM,21.2,19.4,93,30.24,0.8,South,3.5,-,0.02,Snow,Light Snow,180,2013-02-02 12:14:00
7:36 AM,23.0,19.4,86,30.24,2.0,South,3.5,-,0.03,Snow,Light Snow,170,2013-02-02 12:36:00
7:53 AM,23.0,21.0,92,30.26,1.2,South,4.6,-,0.03,Snow,Light Snow,180,2013-02-02 12:53:00
8:05 AM,23.0,21.2,93,30.23,0.5,South,3.5,-,0.00,Fog-Snow,Light Snow,190,2013-02-02 13:05:00
8:21 AM,23.0,21.2,93,30.22,1.0,South,3.5,-,0.01,Snow,Light Snow,170,2013-02-02 13:21:00
8:53 AM,24.1,21.0,88,30.21,1.5,South,4.6,-,0.01,Snow,Light Snow,170,2013-02-02 13:53:00
8:56 AM,24.8,21.2,86,30.19,4.0,South,8.1,-,0.00,Snow,Light Snow,170,2013-02-02 13:56:00
9:10 AM,24.8,21.2,86,30.17,4.0,South,6.9,16.1,0.00,,Overcast,170,2013-02-02 14:10:00
9:53 AM,26.1,21.9,84,30.18,10.0,South,6.9,-,0.00,,Overcast,180,2013-02-02 14:53:00
10:53 AM,27.0,21.9,81,30.17,10.0,South,6.9,-,N/A,,Mostly Cloudy,190,2013-02-02 15:53:00
11:53 AM,30.0,21.9,72,30.14,10.0,SSW,8.1,-,N/A,,Overcast,200,2013-02-02 16:53:00
12:53 PM,34.0,21.0,59,30.10,10.0,WSW,8.1,-,N/A,,Overcast,240,2013-02-02 17:53:00
1:53 PM,34.0,23.0,64,30.07,7.0,WSW,12.7,19.6,0.00,Snow,Light Snow,250,2013-02-02 18:53:00
2:53 PM,33.1,25.0,72,30.06,5.0,West,12.7,-,0.00,Snow,Snow,270,2013-02-02 19:53:00
3:09 PM,33.8,26.6,75,30.04,2.0,West,8.1,-,0.00,Snow,Snow,260,2013-02-02 20:09:00
3:21 PM,33.8,26.6,75,30.04,3.0,West,10.4,-,0.00,Snow,Light Snow,260,2013-02-02 20:21:00
3:36 PM,33.8,26.6,75,30.04,1.8,WSW,10.4,-,0.00,Snow,Light Snow,240,2013-02-02 20:36:00
3:53 PM,32.0,28.0,85,30.06,1.2,West,6.9,-,0.00,Snow,Light Snow,280,2013-02-02 20:53:00
3:58 PM,32.0,28.4,87,30.05,4.0,West,6.9,-,0.00,Snow,Light Snow,260,2013-02-02 20:58:00
4:53 PM,33.1,27.0,78,30.06,10.0,WNW,4.6,-,0.00,,Overcast,290,2013-02-02 21:53:00
5:53 PM,33.1,26.1,75,30.07,10.0,West,8.1,-,N/A,,Overcast,280,2013-02-02 22:53:00
6:53 PM,32.0,26.1,79,30.09,10.0,NW,6.9,-,N/A,,Overcast,320,2013-02-02 23:53:00
7:53 PM,32.0,24.1,73,30.10,10.0,WNW,5.8,-,N/A,,Overcast,300,2013-02-03 00:53:00
8:53 PM,32.0,23.0,69,30.10,10.0,West,4.6,-,N/A,,Mostly Cloudy,270,2013-02-03 01:53:00
9:53 PM,30.9,23.0,72,30.09,10.0,WSW,3.5,-,N/A,,Mostly Cloudy,250,2013-02-03 02:53:00
10:53 PM,32.0,23.0,69,30.09,10.0,WSW,3.5,-,N/A,,Overcast,240,2013-02-03 03:53:00
11:53 PM,32.0,24.1,73,30.09,10.0,West,5.8,-,N/A,,Overcast,260,2013-02-03 04:53:00